Regional Weather Roundup
Issued by NWS Green Bay, WI

Home | Current Version | Previous Version | Graphics & Text | Print | Product List | Glossary Off
Versions: 1 2 3 4 5 6 7 8 9 10 11 12 13 14 15 16 17 18 19 20 21 22 23 24 25 26 27 28 29 30 31 32 33 34 35 36 37 38 39 40 41 42 43 44 45 46 47 48 49 50

000
ASUS43 KGRB 021810
RWRGRB

NORTH-CENTRAL AND NORTHEAST WISCONSIN REGIONAL WEATHER ROUNDUP
NATIONAL WEATHER SERVICE GREEN BAY WI
1200 PM CST MON MAR 02 2015

WIZ005-009-010>012-018-019-021900-
NORTH CENTRAL WISCONSIN

CITY           SKY/WX    TMP DP  RH WIND       PRES   REMARKS
IRONWOOD       SUNNY     21   7  53 SW12      30.36S WCI   9
MANITOWISH WTR SUNNY     20   4  50 W7        30.36F
ARBOR VITAE    SUNNY     22   4  47 CALM      30.36F
EAGLE RIVER    SUNNY     21   3  45 W5        30.36R
LAND O LAKES   SUNNY     24   3  41 W9        30.35S
RHINELANDER    SUNNY     21   5  50 W10       30.37F WCI  10
PHILLIPS       SUNNY     21   3  46 SW7       30.38F
ANTIGO         SUNNY     21   6  53 W3        30.38F
TOMAHAWK       SUNNY     22   3  44 W3        30.39F
MERRILL        SUNNY     22   5  46 W5        30.39F
$$

WIZ013-073-021900-
NORTHEAST WISCONSIN

CITY           SKY/WX    TMP DP  RH WIND       PRES   REMARKS
IRON MOUNTAIN  SUNNY     25   6  44 CALM      30.37R
MARINETTE      SUNNY     25   3  39 NW6       30.44S
OCONTO         SUNNY     25   7  45 W5        30.45F
$$

WIZ017-030-035>037-045-021900-
CENTRAL WISCONSIN

CITY           SKY/WX    TMP DP  RH WIND       PRES   REMARKS
MEDFORD        SUNNY     19   5  54 SW9       30.40F WCI   8
WAUSAU         SUNNY     20   4  50 W6        30.41F
MOSINEE        NOT AVBL
MARSHFIELD     SUNNY     20   6  55 SW7       30.44F
WISC RAPIDS    SUNNY     22   2  42 VRB5      30.47F
STEVENS POINT  SUNNY     20   4  49 NW7       30.45S
WAUPACA        SUNNY     28   4  36 W5        30.46F
SHAWANO        SUNNY     26   8  46 SW5       30.46S
CLINTONVILLE   SUNNY     25   9  50 SW7       30.45F
$$

WIZ038-039-048-051-021900-
FOX VALLEY

CITY           SKY/WX    TMP DP  RH WIND       PRES   REMARKS
NWS GREEN BAY  SUNNY     25   9  50 SW8       30.47F
APPLETON       MOSUNNY   25   7  46 SW7       30.47S
OSHKOSH        SUNNY     24   9  52 MISG      30.47F
FOND DU LAC    SUNNY     24   8  50 NW6       30.47F
$$

WIZ022-050-052-021900-
EAST CENTRAL WISCONSIN

CITY           SKY/WX    TMP DP  RH WIND       PRES   REMARKS
STURGEON BAY   SUNNY     21   7  53 SW8       30.47F
MANITOWOC      SUNNY     32  10  40 CALM      30.48F
SHEBOYGAN      SUNNY     25   8  48 CALM      30.47F
$$

LMZ563-521-522-541>543-021900-
LAKESHORE

STATION/POSITION TIME  TEMP    WIND        PRES    VSBY  WAVE
                       AIR SEA DIR/SP/G                  HT/PER
                 (UTC) (F)     (DEG/KT/KT) (MB)    (MI)  (FT/S)
SHEBOYGAN LKSHOR 1800   23     210/  2/  3 1033.3F
KEWAUNEE LKSHORE 1800   24      CALM  /  7 1030.8F
NORTHPORT PIER   1800   23     300/  6/ 10 1030.8R
SISTER BAY LKSHO 1800   35     260/  8/  8   N/A
CHAMBERS ISLAND  1800   23     210/  8/ 11 1031.2S
MENOMINEE LKSHOR 1800   22     140/ 12     1031.4F
$$



USA.gov is the U.S. government's official web portal to all federal, state and local government web resources and services.